Temperature
19 18 19 18 18 18 18 18 18 18 18 18 18 18 18 18 18 18 18 18 18 18 18 18 18 18 18 18 18 18 18 18 18 18 18 17 17 17 17 17 17 17 17
19 18 19 18 18 18 18 18 18 18 18 18 18 18 18 18 18 18 18 18 18 18 18 18 18 18 18 18 18 18 18 18 17 17 17 17 17 17 17 17 17 17 17
19 18 18 18 18 18 18 18 18 18 18 18 18 18 18 18 18 18 18 18 18 18 18 18 18 18 18 18 18 18 17 17 17 17 17 17 17 17 17 17 17 17 17
19 18 18 18 18 18 18 18 18 18 18 18 18 18 18 18 18 18 18 18 18 18 18 18 18 18 18 18 18 17 17 17 17 17 17 17 16 17 17 17 17 17 17
19 18 18 18 18 18 18 18 18 18 18 18 18 18 18 18 18 18 18 18 18 18 18 18 18 18 17 17 17 17 17 17 17 17 17 16 16 17 17 17 17 17 17
18 18 18 18 18 18 18 18 18 18 18 18 18 18 18 18 18 18 18 18 18 17 17 18 18 17 17 17 17 17 18 17 17 17 16 16 16 17 17 17 17 17 17
19 18 18 18 18 18 18 18 18 18 18 18 18 18 18 18 18 18 18 18 18 17 17 17 17 17 17 18 18 18 17 17 17 17 16 16 17 17 17 17 17 17 17
19 19 17 18 18 18 18 18 18 18 18 18 18 18 18 18 18 18 18 18 18 17 17 17 17 17 17 17 18 18 17 17 17 17 17 16 17 17 17 17 17 17 16
19 19 18 18 18 18 18 18 18 18 18 18 18 18 18 18 18 18 18 18 18 18 17 17 17 17 17 18 18 18 17 17 18 17 17 16 17 17 17 17 17 17 16
19 19 18 18 18 18 18 18 18 18 18 18 18 18 18 18 18 18 18 18 18 18 18 17 17 17 17 18 18 18 17 17 18 17 17 17 17 17 17 17 17 16 16
19 19 19 19 18 18 18 18 18 18 18 18 18 18 17 17 17 17 17 18 18 18 18 17 17 17 17 18 18 17 17 17 17 17 17 17 17 17 17 17 17 17 16
19 19 19 18 18 18 18 17 18 18 17 17 17 17 17 17 17 17 18 18 18 18 18 18 18 17 17 17 17 17 17 17 18 17 17 17 17 17 17 17 17 17 17
19 19 19 18 18 18 18 18 18 18 17 17 17 17 17 17 17 17 17 17 17 17 17 17 17 17 17 17 17 18 17 18 18 17 17 17 17 17 17 17 17 16 16
19 19 19 18 18 18 18 18 18 18 18 18 17 17 17 17 17 17 17 17 17 17 17 17 17 17 17 17 17 17 18 18 18 17 17 17 17 17 17 17 17 16 16
19 19 18 18 18 18 18 18 18 18 18 18 17 17 17 17 17 17 17 17 17 17 17 17 17 17 17 17 17 17 17 17 17 17 17 17 17 17 17 17 17 16 16
19 19 19 18 18 18 18 18 18 18 18 18 17 17 17 17 17 17 17 17 17 17 17 17 17 17 17 17 17 17 17 17 17 17 17 17 17 17 17 17 17 17 16
19 19 19 19 19 18 18 18 18 18 18 18 17 17 17 17 17 17 17 17 17 17 17 17 17 17 17 17 17 17 17 17 17 17 17 17 17 17 17 17 17 17 16
20 19 19 19 19 19 18 18 18 18 18 18 18 18 18 17 17 17 17 17 17 17 17 17 17 17 18 18 18 17 17 17 17 17 17 17 17 17 17 17 17 17 17
20 20 19 19 19 19 18 18 18 18 18 18 18 18 18 18 18 18 18 17 17 17 18 18 18 17 17 18 18 18 18 18 17 17 17 17 17 17 17 17 17 17 17
20 20 20 19 19 19 19 18 18 18 18 18 18 18 18 18 18 18 17 17 17 18 17 17 17 17 17 17 18 18 18 18 18 18 17 17 17 17 17 17 17 17 17
20 20 20 19 19 19 19 19 18 18 18 18 18 18 18 18 18 18 18 17 18 17 17 17 17 17 17 17 18 18 18 18 18 18 18 18 17 17 17 17 17 16 16
21 20 20 20 19 19 19 19 19 18 18 18 18 18 18 18 18 18 18 18 17 17 17 17 17 17 17 17 17 18 18 19 18 18 18 17 17 17 17 17 17 17 16
21 20 20 20 19 19 19 19 18 18 18 18 18 18 18 18 18 18 17 17 17 17 17 17 17 17 17 17 17 17 18 19 18 18 18 18 17 17 17 17 17 17 16
21 20 20 20 20 19 19 19 18 18 18 18 18 18 18 18 18 17 17 17 17 17 17 17 17 17 17 17 17 17 17 18 18 18 18 18 17 17 17 17 17 17 16
21 20 20 20 20 19 19 19 19 18 18 18 18 18 18 18 18 17 17 17 17 17 17 17 17 17 17 17 17 17 17 17 17 17 17 17 17 17 17 17 16 16 16
21 20 20 20 20 19 19 19 19 18 18 18 18 18 18 18 17 17 17 17 17 17 17 17 17 17 17 17 17 17 17 17 17 17 17 17 17 17 16 16 16 16 16
Wind_Speed
8 10 11 10 11 12 13 14 14 14 14 14 15 15 15 16 16 16 17 17 17 17 17 17 18 18 17 17 17 17 17 17 17 18 18 19 18 18 17 16 16 17 18
10 12 12 10 11 12 13 13 14 14 14 14 14 14 15 15 16 16 16 16 17 17 17 17 17 17 17 16 16 16 16 16 16 17 17 18 17 16 14 13 14 16 17
11 12 12 10 11 12 12 12 13 13 13 14 14 14 14 14 15 15 15 16 16 16 16 16 16 16 16 16 16 15 15 15 15 14 13 15 16 15 15 15 17 17 16
10 11 11 12 11 11 12 12 12 13 13 13 13 14 14 14 14 15 15 15 15 15 15 15 15 15 15 15 15 15 14 13 11 9 10 13 15 15 15 15 15 15 15
10 11 13 10 11 11 11 11 11 12 12 13 13 13 13 13 14 14 14 14 14 15 14 15 14 14 14 14 14 14 13 11 7 7 12 13 14 15 15 14 14 14 14
10 11 13 10 10 10 10 10 11 11 12 12 12 12 12 13 13 13 13 14 14 14 13 14 13 13 13 13 13 13 11 8 7 11 10 12 14 14 14 14 14 14 14
10 11 13 10 10 10 10 10 10 10 11 11 11 12 12 12 12 12 12 13 12 12 12 12 12 12 12 12 12 11 8 2 7 10 9 11 14 14 13 13 13 13 13
10 11 13 11 10 9 10 9 9 10 10 11 11 11 11 11 11 11 11 11 11 11 11 11 11 11 11 11 11 9 6 1 9 9 10 12 14 12 12 12 12 12 12
9 9 10 11 10 9 9 9 9 9 10 10 10 10 10 11 11 10 10 10 11 11 10 10 10 10 9 9 9 8 4 2 5 9 10 11 13 12 12 11 11 11 11
8 8 8 8 8 9 10 9 8 9 9 9 9 9 8 9 10 9 10 10 10 9 9 9 9 9 9 9 8 7 5 5 6 8 8 12 12 11 10 10 10 10 10
7 6 6 8 7 6 8 9 9 9 8 8 9 7 5 6 8 8 10 9 8 8 8 7 7 7 8 10 8 7 6 3 7 6 8 13 11 10 9 9 9 10 9
7 6 6 5 6 5 5 6 5 6 6 4 5 5 4 5 4 7 10 7 7 6 7 6 6 7 6 7 9 9 4 4 5 6 9 11 9 9 9 9 9 9 9
8 6 6 5 5 4 4 3 4 4 4 5 5 4 4 3 4 4 5 7 6 6 5 6 6 3 3 3 2 3 3 3 4 5 9 10 8 8 8 8 8 8 8
7 6 5 6 4 2 2 2 3 3 3 3 4 2 3 2 2 2 2 3 3 3 2 2 2 2 2 2 2 2 3 2 3 4 8 9 8 8 8 8 8 8 8
7 7 6 5 4 3 2 1 2 2 2 3 2 2 1 2 2 2 1 1 1 2 3 2 1 1 1 2 2 2 1 2 2 3 7 9 8 8 9 9 9 9 9
7 7 7 6 6 5 4 2 1 2 1 1 1 1 1 1 1 1 2 2 2 2 1 2 2 2 2 1 2 2 2 2 3 2 4 9 10 9 9 10 10 10 11
8 7 7 7 6 6 5 4 3 2 2 2 2 3 3 3 2 2 2 3 2 2 2 2 2 2 2 2 2 3 3 3 3 4 4 4 8 11 11 11 11 11 11
8 8 8 7 7 7 5 4 3 3 3 3 3 3 4 4 4 4 3 3 3 3 3 2 3 3 2 3 3 3 3 3 4 5 6 5 5 7 11 13 12 11 11
8 8 8 7 7 7 6 5 4 3 3 4 3 3 3 4 5 5 4 3 4 3 3 4 2 3 3 3 4 4 4 4 5 6 5 6 6 6 6 12 14 13 13
8 8 8 8 7 6 5 4 4 4 3 3 3 3 4 5 5 5 4 4 5 3 3 3 3 3 4 4 5 3 4 5 5 5 6 7 7 7 7 7 9 13 15
8 9 9 8 7 6 5 5 4 4 3 3 4 4 4 4 5 5 4 3 4 3 4 5 4 4 4 3 4 4 5 6 5 5 5 5 6 6 6 6 7 7 9
9 9 9 9 8 7 5 4 3 3 3 3 2 2 3 4 4 5 5 4 4 4 5 5 5 5 5 4 4 4 3 4 4 5 5 5 5 5 6 8 7 7 7
9 9 8 7 7 7 6 4 3 3 3 2 2 2 3 4 4 4 4 4 4 5 5 5 6 6 5 4 4 4 3 3 2 3 4 4 4 4 5 5 7 7 8
9 8 7 7 7 6 6 5 5 4 3 3 2 2 2 3 4 4 5 5 5 5 4 6 5 5 6 5 4 5 6 4 3 3 3 3 4 4 5 4 4 5 6
8 8 8 7 6 6 6 6 5 4 3 2 2 1 2 2 3 4 4 4 4 4 4 5 4 6 5 5 5 5 5 5 6 5 5 3 3 3 3 4 3 4 5
8 8 7 7 6 6 6 5 5 4 3 3 2 2 2 1 1 2 3 3 4 3 4 4 4 6 5 6 5 5 5 5 5 5 5 5 4 3 2 3 3 4 5
Wind_Direction
107 100 94 90 90 92 91 92 93 93 93 92 90 89 87 87 88 90 91 93 95 96 96 95 95 95 94 95 97 100 100 101 103 105 106 107 109 110 114 120 120 108 110
113 106 101 95 93 93 92 92 94 94 93 92 91 90 88 88 88 90 93 95 96 96 96 95 95 96 96 97 99 100 101 102 105 109 113 111 109 110 112 107 98 109 114
116 112 113 98 95 95 94 94 94 95 95 94 90 88 88 88 89 90 93 96 97 97 98 98 97 96 97 99 100 102 103 104 107 118 127 116 112 109 108 104 106 115 115
114 112 104 101 98 97 95 95 95 96 96 94 91 89 88 88 88 89 92 95 98 99 98 97 97 97 97 99 101 102 104 107 116 144 120 111 113 112 113 113 114 116 116
108 106 104 103 98 97 96 95 95 96 95 94 91 90 89 89 89 91 92 94 97 98 97 95 96 98 98 98 100 103 107 111 133 124 100 105 108 116 117 118 118 118 117
121 113 107 107 104 102 100 99 96 96 95 95 92 91 90 90 91 91 93 94 96 98 97 95 95 96 98 98 99 102 110 132 158 103 108 111 111 119 121 122 122 120 119
117 113 114 109 107 105 103 101 99 99 98 96 94 91 90 91 91 91 92 94 96 96 96 94 95 98 100 100 100 101 106 132 98 101 105 104 110 121 122 122 123 122 122
122 116 115 113 107 105 103 101 100 100 99 97 95 93 91 92 91 93 95 97 98 98 96 96 94 95 100 103 104 106 111 200 106 101 100 104 113 123 125 126 125 125 127
121 119 126 130 125 119 109 103 101 99 99 97 97 96 95 95 95 96 97 97 99 98 98 99 98 96 100 105 108 109 105 313 104 107 109 111 121 127 129 131 130 130 130
128 124 125 121 123 132 126 115 110 105 103 102 101 102 109 116 113 116 113 99 102 102 103 103 102 104 106 111 118 123 156 225 105 110 110 116 129 134 133 135 137 136 136
133 129 130 125 126 126 124 128 136 129 122 134 123 125 156 130 118 127 93 101 105 106 107 107 109 119 128 128 132 157 196 136 105 100 104 116 136 140 141 141 143 143 144
150 146 133 127 124 127 121 132 137 133 128 123 111 123 116 95 97 105 113 112 112 119 127 122 139 165 184 138 149 187 165 122 117 116 112 127 144 150 152 153 152 152 153
156 154 145 138 140 138 127 138 120 118 129 133 121 125 114 126 125 123 136 141 144 160 149 151 180 157 124 116 138 139 112 115 115 116 123 139 154 161 164 164 163 164 164
163 161 155 147 150 141 125 126 143 139 144 131 129 155 132 124 116 115 132 133 156 152 150 176 151 123 123 133 132 116 132 132 114 108 127 151 167 174 176 178 178 179 179
172 173 165 165 159 164 168 201 142 142 140 129 127 136 144 149 140 131 128 162 204 174 173 188 179 130 181 176 176 160 144 135 137 142 137 159 178 188 191 191 192 192 193
183 181 173 179 177 183 185 198 187 163 151 144 153 155 218 190 168 188 184 208 221 216 199 208 187 197 221 203 208 196 217 202 168 191 172 168 186 197 202 203 202 202 202
188 187 187 189 186 196 201 206 201 189 177 204 204 208 225 225 208 228 222 216 217 220 206 220 222 224 223 213 212 216 222 240 219 210 211 198 185 191 200 206 209 209 210
192 189 195 198 190 199 207 217 214 207 198 224 227 222 231 241 232 235 235 231 218 227 224 220 233 234 232 238 236 236 231 221 226 221 215 214 212 195 191 199 209 215 216
199 196 194 203 200 205 205 207 216 215 224 234 236 234 228 236 231 235 243 243 240 238 237 246 210 250 252 255 244 227 234 231 226 222 220 223 219 219 207 187 203 216 220
203 201 201 201 204 206 209 210 223 220 221 232 242 246 244 232 226 238 237 230 243 244 245 250 256 250 259 257 262 252 242 233 230 225 225 220 222 222 224 211 205 211 214
201 201 203 203 197 201 207 215 215 217 225 232 234 236 239 239 230 239 253 226 237 239 253 253 254 246 250 255 264 257 242 231 228 226 230 229 224 226 227 223 230 230 211
198 200 200 202 199 201 204 217 230 237 228 228 246 233 238 230 235 236 243 244 235 243 249 256 254 260 259 242 260 272 262 228 222 224 222 224 233 230 230 226 230 233 245
194 198 199 196 194 201 201 204 208 211 230 224 232 232 239 230 229 251 244 252 249 249 245 249 250 247 259 256 248 255 270 266 270 216 216 226 234 243 244 236 228 231 235
191 190 189 186 192 195 200 209 215 223 233 235 237 234 239 227 236 236 238 242 251 257 254 251 243 252 254 256 250 245 259 283 276 265 234 221 222 236 248 254 246 236 235
183 182 181 181 188 191 199 203 214 228 229 224 220 220 249 239 239 242 238 242 251 259 261 266 268 259 253 256 256 256 254 252 248 252 261 256 246 244 244 253 258 259 254
176 177 174 172 181 189 194 200 211 224 228 231 226 218 222 225 238 249 249 254 258 262 257 253 253 251 258 262 264 261 259 260 256 255 261 260 261 263 254 257 261 260 255
Height
1544 1544 1542 1542 1542 1543 1543 1543 1543 1543 1543 1543 1543 1543 1543 1543 1543 1542 1543 1543 1543 1543 1544 1544 1545 1546 1547 1547 1548 1549 1550 1551 1552 1553 1554 1555 1557 1558 1559 1560 1562 1563 1564
1546 1545 1544 1544 1545 1545 1545 1546 1546 1546 1546 1546 1546 1546 1546 1546 1546 1546 1546 1546 1547 1547 1547 1548 1549 1549 1550 1551 1552 1552 1553 1554 1555 1556 1557 1558 1559 1561 1562 1563 1564 1565 1566
1548 1547 1546 1547 1547 1548 1548 1548 1548 1549 1549 1549 1549 1549 1549 1549 1549 1549 1550 1550 1550 1550 1551 1551 1552 1553 1553 1554 1555 1555 1556 1557 1558 1559 1560 1562 1562 1563 1564 1565 1566 1567 1568
1550 1550 1549 1549 1550 1550 1550 1551 1551 1551 1552 1552 1552 1552 1552 1552 1552 1552 1553 1553 1553 1554 1554 1555 1555 1556 1557 1557 1558 1558 1559 1559 1560 1562 1565 1565 1565 1565 1566 1567 1568 1569 1571
1551 1552 1550 1551 1552 1552 1553 1553 1554 1554 1554 1554 1554 1554 1555 1555 1555 1555 1555 1556 1556 1557 1557 1558 1558 1559 1560 1560 1560 1561 1561 1562 1563 1565 1567 1567 1567 1567 1568 1569 1570 1572 1573
1553 1554 1552 1553 1554 1554 1555 1555 1556 1556 1557 1557 1557 1557 1557 1557 1557 1558 1558 1558 1559 1560 1560 1561 1561 1562 1562 1563 1563 1563 1564 1565 1567 1569 1569 1569 1569 1569 1570 1571 1572 1574 1575
1555 1556 1555 1555 1555 1556 1557 1557 1558 1558 1559 1559 1559 1559 1559 1560 1560 1560 1560 1561 1562 1562 1563 1563 1564 1565 1565 1565 1565 1566 1566 1567 1571 1571 1570 1571 1570 1571 1572 1573 1575 1576 1577
1557 1558 1556 1556 1557 1558 1559 1559 1560 1560 1561 1561 1561 1562 1562 1562 1562 1562 1563 1564 1564 1565 1565 1566 1567 1567 1567 1568 1568 1568 1568 1569 1572 1572 1573 1572 1572 1573 1574 1575 1577 1578 1579
1559 1560 1560 1560 1559 1560 1560 1561 1562 1562 1562 1563 1563 1563 1564 1564 1564 1565 1565 1566 1566 1567 1568 1568 1569 1569 1569 1570 1570 1570 1570 1571 1575 1575 1575 1574 1574 1575 1576 1577 1578 1579 1580
1560 1561 1562 1563 1563 1564 1563 1563 1563 1564 1564 1565 1565 1565 1566 1566 1567 1567 1568 1568 1568 1569 1570 1570 1571 1571 1572 1572 1572 1572 1573 1574 1577 1577 1577 1576 1576 1577 1578 1579 1580 1580 1581
1561 1562 1564 1565 1565 1566 1566 1565 1565 1566 1566 1567 1567 1567 1568 1570 1571 1571 1570 1570 1571 1571 1572 1572 1573 1573 1574 1574 1574 1574 1575 1577 1578 1578 1578 1577 1577 1578 1579 1580 1581 1581 1582
1562 1564 1565 1566 1566 1567 1568 1567 1568 1569 1568 1569 1569 1570 1571 1570 1572 1572 1571 1572 1572 1573 1574 1574 1575 1575 1576 1577 1576 1576 1578 1579 1580 1580 1579 1578 1579 1579 1580 1581 1582 1582 1583
1563 1564 1565 1566 1566 1567 1568 1569 1569 1570 1569 1570 1570 1570 1571 1572 1573 1574 1574 1574 1574 1575 1576 1576 1577 1578 1578 1578 1579 1579 1579 1580 1581 1581 1579 1579 1579 1580 1580 1581 1582 1583 1583
1563 1565 1566 1566 1566 1567 1568 1569 1570 1570 1571 1571 1571 1571 1572 1573 1573 1574 1575 1576 1576 1577 1577 1578 1578 1578 1578 1579 1579 1580 1580 1581 1581 1581 1580 1579 1580 1580 1581 1581 1582 1583 1584
1563 1565 1566 1566 1566 1567 1567 1569 1570 1570 1571 1572 1571 1572 1572 1573 1574 1574 1574 1575 1576 1577 1578 1578 1579 1579 1579 1579 1580 1580 1580 1580 1581 1581 1580 1580 1580 1580 1581 1581 1582 1583 1584
1564 1565 1566 1566 1566 1567 1568 1568 1569 1571 1571 1572 1572 1572 1572 1573 1573 1574 1574 1575 1576 1577 1578 1578 1578 1578 1579 1579 1579 1580 1580 1580 1580 1580 1581 1580 1580 1580 1580 1581 1582 1582 1583
1564 1564 1565 1566 1566 1567 1568 1569 1570 1571 1571 1571 1572 1572 1572 1572 1573 1573 1574 1575 1575 1576 1577 1577 1578 1578 1578 1579 1579 1579 1579 1579 1580 1579 1580 1580 1580 1579 1580 1580 1581 1581 1582
1563 1564 1564 1566 1566 1567 1567 1568 1569 1570 1570 1571 1571 1571 1571 1571 1572 1572 1573 1574 1575 1575 1576 1576 1577 1578 1578 1578 1578 1578 1578 1578 1578 1578 1579 1579 1579 1580 1579 1579 1579 1580 1580
1562 1563 1564 1565 1566 1566 1567 1567 1568 1568 1569 1569 1570 1570 1570 1570 1571 1571 1572 1573 1573 1574 1575 1576 1576 1577 1577 1577 1577 1576 1576 1576 1577 1577 1577 1577 1578 1578 1578 1577 1578 1578 1579
1560 1562 1563 1563 1564 1565 1566 1566 1567 1568 1568 1568 1568 1568 1568 1569 1569 1570 1571 1571 1572 1573 1573 1574 1574 1574 1575 1575 1575 1575 1575 1574 1575 1575 1575 1575 1576 1576 1577 1577 1576 1576 1576
1558 1560 1561 1562 1563 1564 1565 1565 1566 1567 1567 1567 1567 1567 1567 1567 1568 1568 1569 1569 1570 1571 1572 1573 1573 1573 1573 1573 1573 1573 1572 1572 1572 1572 1573 1573 1573 1574 1574 1574 1574 1574 1574
1556 1558 1559 1560 1561 1562 1563 1564 1564 1565 1565 1566 1566 1565 1565 1566 1566 1567 1567 1568 1568 1569 1570 1570 1570 1571 1571 1571 1571 1571 1570 1571 1569 1570 1570 1570 1571 1571 1571 1571 1571 1571 1571
1554 1556 1557 1558 1559 1560 1561 1562 1563 1563 1564 1564 1564 1564 1564 1564 1565 1565 1565 1566 1566 1567 1568 1568 1568 1568 1569 1569 1569 1569 1569 1568 1568 1568 1567 1568 1568 1568 1568 1569 1568 1568 1568
1552 1554 1555 1556 1557 1558 1559 1560 1561 1562 1562 1562 1562 1563 1563 1563 1563 1564 1563 1564 1564 1565 1565 1565 1566 1566 1566 1566 1566 1566 1566 1566 1566 1565 1566 1565 1565 1565 1565 1566 1566 1565 1565
1551 1552 1553 1554 1555 1556 1557 1558 1559 1560 1561 1561 1561 1561 1561 1562 1562 1562 1562 1562 1562 1562 1563 1563 1563 1563 1563 1563 1563 1563 1563 1563 1563 1563 1562 1563 1562 1562 1562 1562 1562 1562 1562
1549 1551 1552 1553 1554 1554 1555 1557 1557 1558 1559 1559 1560 1560 1560 1560 1560 1560 1560 1560 1560 1560 1560 1560 1560 1560 1560 1560 1560 1560 1560 1560 1560 1560 1559 1559 1559 1559 1559 1558 1559 1558 1558